Wind_Speed
24 24 23 24 25 25 25 24 23 23 23 23 24 26 28 30 32 31 31 30 31 32 32 32 34 33 33 33 33 33 32 33 32 32 32 32 32 32 33 32 31 30 29
25 25 25 25 25 26 23 24 25 26 27 28 25 26 28 32 33 33 34 34 33 32 32 34 34 35 34 34 35 34 35 35 35 35 35 35 34 34 34 34 34 32 31
24 24 25 25 24 25 27 25 25 26 26 26 28 29 29 31 31 34 33 35 36 37 35 34 35 37 36 36 36 35 35 35 36 37 37 37 37 37 36 36 35 34 34
27 28 28 30 30 30 31 31 30 29 30 30 30 30 31 33 33 33 33 34 34 35 39 39 38 38 39 39 38 37 37 36 36 36 38 39 39 40 39 39 37 37 36
31 31 33 35 36 36 36 36 37 37 35 35 35 35 35 35 36 36 37 38 35 34 35 39 42 42 41 41 41 40 39 38 38 37 37 37 39 40 40 40 39 38 37
33 34 34 35 36 37 39 40 41 40 40 40 40 40 40 39 39 40 40 39 39 39 40 36 35 43 46 43 43 43 42 41 40 39 38 38 38 38 39 40 40 39 38
39 39 40 41 42 44 45 45 47 45 44 46 46 45 45 45 44 44 43 44 44 44 43 43 43 44 49 49 42 42 44 44 41 40 40 39 38 39 38 39 40 39 38
45 46 48 50 50 51 52 52 54 54 54 52 53 53 53 51 51 51 49 49 48 49 48 47 46 44 43 42 47 47 41 43 44 45 43 41 39 40 40 39 40 40 39
50 53 54 55 57 58 60 59 60 60 62 62 62 62 61 60 58 56 56 56 55 54 53 52 51 50 46 44 43 38 49 44 43 48 51 43 41 42 40 40 40 41 40
60 64 64 66 67 67 67 69 69 69 69 69 69 70 69 68 66 63 62 61 62 61 59 58 56 55 53 50 47 46 47 50 50 50 48 48 42 43 42 42 43 42 42
66 69 71 73 75 76 78 79 79 79 79 77 77 77 76 75 75 74 71 69 67 67 66 65 62 60 58 56 53 53 53 53 49 53 51 46 48 43 45 45 44 45 44
71 74 77 79 82 84 85 86 87 86 87 87 85 83 82 83 82 82 80 77 74 73 71 71 69 66 64 61 60 60 58 57 54 52 54 48 48 47 45 48 48 47 47
75 78 82 83 86 88 91 92 94 95 94 92 92 92 90 87 87 87 86 87 84 80 79 77 75 73 70 68 66 64 63 61 57 55 52 54 51 53 48 48 50 49 48
79 82 85 88 88 89 91 94 97 98 100 101 94 89 91 92 93 90 90 92 92 90 87 85 82 80 77 74 72 70 67 65 62 59 58 53 53 59 56 51 43 51 52
86 77 62 52 47 43 43 45 50 59 70 82 95 97 99 97 96 95 92 92 93 96 96 93 90 88 84 81 79 76 74 70 67 64 62 59 55 58 59 59 53 55 52
37 40 44 45 47 47 46 45 46 44 42 45 56 69 74 79 84 91 98 98 94 95 97 99 97 94 91 89 86 83 80 77 74 71 67 64 61 59 60 64 65 65 53
41 47 46 49 50 51 51 51 49 44 45 46 45 42 51 62 67 72 77 86 100 99 95 98 100 100 98 94 93 91 87 84 81 78 74 70 66 63 62 66 68 70 68
47 50 51 47 45 45 44 43 42 43 45 44 44 45 44 42 49 60 66 70 73 84 97 100 99 102 102 101 99 97 93 91 89 86 82 77 73 70 67 67 70 71 71
47 45 45 45 45 44 42 40 39 40 41 42 44 43 44 44 42 44 51 58 65 69 67 78 96 101 101 103 102 101 99 95 95 92 89 84 80 78 75 72 71 70 69
45 43 43 44 42 38 39 40 40 40 40 41 40 41 43 44 45 43 44 48 56 60 61 61 64 79 103 102 104 104 102 102 99 96 94 91 88 85 83 80 76 74 70
42 41 40 37 38 38 35 36 41 40 37 36 37 38 40 41 44 44 43 45 46 51 51 55 59 58 65 90 109 105 104 104 104 100 97 95 95 92 90 86 83 80 77
39 39 40 41 41 35 32 34 38 43 44 43 37 34 37 41 42 42 42 42 44 47 49 49 52 53 54 58 77 105 107 107 105 104 102 100 98 97 94 91 89 87 84
38 39 42 42 35 33 35 35 37 39 42 43 40 36 35 37 38 41 42 42 42 43 44 49 49 48 49 51 57 69 97 108 105 105 106 105 101 99 99 96 95 92 90
39 44 46 40 33 34 35 34 36 37 38 45 47 40 35 37 36 37 38 41 41 40 40 38 42 44 46 46 49 52 64 83 104 107 108 106 105 104 101 100 99 98 96
40 42 41 39 36 35 36 36 36 37 36 40 43 47 45 37 36 32 34 35 38 39 38 38 40 41 41 43 45 46 46 58 75 94 100 107 110 108 108 102 103 101 101
39 42 42 40 39 37 38 39 39 38 34 36 40 46 49 43 35 30 29 31 33 35 36 37 39 40 39 38 39 42 41 40 50 65 82 93 106 109 110 110 105 105 104
Wind_Direction
308 306 303 299 300 300 301 300 298 298 293 281 273 273 275 272 271 270 268 267 265 262 258 258 257 254 251 248 248 247 245 244 244 245 244 242 239 237 234 234 233 233 235
301 299 298 297 297 300 298 293 292 291 287 286 283 282 274 271 267 265 265 263 262 261 259 256 255 254 253 251 248 247 246 244 244 242 243 242 240 239 238 237 236 235 237
296 297 297 297 295 293 293 289 284 284 283 281 279 277 275 276 277 261 259 261 262 260 260 259 258 253 253 251 250 250 248 246 244 243 242 242 239 237 238 238 237 237 237
303 303 301 299 297 296 294 294 290 284 281 280 278 274 273 271 272 273 270 262 262 262 260 255 255 255 253 250 248 248 248 248 246 244 241 242 241 237 236 236 236 236 236
309 305 303 302 300 298 295 294 292 290 286 283 281 279 275 273 270 267 267 268 266 264 263 261 255 252 248 248 248 246 247 247 247 245 243 240 241 238 236 236 236 235 235
297 293 290 287 286 285 285 285 284 283 282 279 276 275 274 273 272 271 268 264 263 262 261 263 266 259 247 245 242 244 244 245 246 246 243 241 239 237 235 235 235 234 231
287 284 281 280 279 279 278 277 278 277 275 275 274 272 271 269 268 268 267 266 264 261 259 259 258 257 257 236 239 242 241 242 242 244 244 239 236 238 234 232 231 229 225
291 289 288 286 282 279 279 277 276 274 272 269 269 268 268 267 266 264 263 263 262 262 261 257 254 255 254 257 262 235 240 240 241 244 244 240 235 235 234 231 229 225 223
297 294 290 285 284 282 280 274 272 270 269 270 268 266 265 264 261 260 259 260 260 261 259 258 255 253 251 247 257 256 240 240 241 238 235 234 235 234 232 231 228 225 223
295 294 295 292 290 287 283 281 277 273 267 264 264 264 264 262 260 257 255 255 256 255 257 257 256 253 251 249 246 245 244 239 241 241 244 231 231 234 232 230 228 227 226
293 291 288 285 284 284 283 283 281 279 276 271 265 260 259 260 260 258 254 251 250 253 253 252 253 254 253 249 248 244 241 241 250 236 240 244 229 234 234 231 229 228 228
293 289 286 285 283 280 278 278 278 277 276 275 272 268 262 257 254 255 256 253 250 247 248 250 249 249 249 250 247 247 246 245 245 247 239 236 239 230 237 236 232 230 230
292 291 288 286 283 280 278 275 273 272 272 271 270 269 266 262 257 253 252 252 251 249 247 246 247 247 246 247 248 247 246 246 246 244 243 240 235 231 233 236 236 233 233
293 290 287 285 283 282 279 276 275 274 272 271 268 264 261 261 260 257 253 250 248 249 247 246 245 244 244 244 245 247 246 246 244 244 244 241 238 232 234 233 240 237 235
298 301 305 309 310 312 310 302 291 285 282 279 275 274 269 264 259 256 255 251 250 248 246 245 244 243 243 242 242 243 245 245 245 242 242 241 236 233 236 238 235 232 230
324 327 322 319 317 315 313 311 308 305 303 299 284 277 276 272 269 262 258 252 251 248 248 245 244 243 242 242 241 240 241 244 243 242 240 240 238 234 233 233 237 236 224
329 327 325 323 319 314 310 307 304 303 301 296 295 297 283 275 270 268 266 260 254 248 247 246 245 243 241 240 241 240 240 240 243 242 241 239 238 236 234 233 232 241 238
332 330 325 321 319 318 313 311 306 300 298 295 295 289 289 287 279 273 267 262 260 254 249 245 245 243 242 241 239 240 240 239 239 241 241 239 238 236 233 234 234 235 240
334 330 330 329 328 328 328 324 318 313 307 301 296 292 287 283 283 282 276 267 258 257 254 248 244 243 242 241 242 240 238 238 239 238 240 241 239 238 236 234 235 237 238
330 333 334 331 332 334 332 330 328 326 318 311 300 293 290 288 283 282 282 278 264 256 252 250 247 242 240 239 240 240 240 238 236 237 237 238 240 238 237 236 236 237 238
333 335 334 331 333 335 340 345 343 341 336 325 312 297 288 286 283 283 282 280 271 260 258 250 248 245 243 239 238 237 240 239 237 236 235 236 237 238 237 237 237 237 237
335 335 332 327 327 330 337 348 346 349 346 339 329 315 300 290 284 278 280 279 274 264 261 256 251 248 245 244 239 237 236 237 237 237 235 234 234 235 237 237 236 237 237
338 336 337 331 325 329 331 339 343 347 352 355 344 329 317 309 294 283 276 278 276 270 265 259 255 251 252 249 246 241 236 235 236 236 236 235 233 233 234 236 236 236 237
344 344 338 336 331 328 332 335 336 338 346 349 355 350 331 323 308 290 277 272 274 274 271 263 255 255 255 252 252 247 241 235 235 234 235 236 235 233 231 231 233 235 236
351 349 351 345 338 331 331 332 334 334 337 349 352 354 348 337 325 306 283 272 269 270 271 265 257 259 257 255 253 251 250 240 237 234 232 234 235 234 232 230 231 232 235
355 356 353 345 339 336 333 332 332 332 332 336 347 350 351 348 338 319 298 280 270 267 265 266 260 259 258 256 255 252 252 250 241 238 235 230 234 234 234 233 231 231 232
Height
5872 5871 5870 5868 5867 5866 5864 5862 5861 5859 5857 5857 5857 5857 5856 5855 5854 5854 5853 5853 5853 5853 5853 5853 5853 5854 5855 5857 5858 5859 5860 5861 5862 5864 5866 5868 5869 5872 5873 5874 5876 5877 5879
5867 5866 5864 5863 5861 5859 5858 5857 5856 5855 5854 5852 5851 5851 5850 5849 5848 5847 5847 5847 5846 5847 5847 5847 5847 5848 5848 5850 5851 5853 5854 5854 5856 5858 5861 5863 5865 5867 5869 5870 5872 5873 5874
5864 5862 5860 5858 5856 5854 5852 5851 5849 5848 5847 5846 5845 5844 5842 5841 5839 5839 5839 5839 5839 5840 5841 5841 5841 5841 5842 5843 5844 5846 5848 5848 5850 5851 5854 5856 5858 5861 5863 5865 5867 5869 5870
5861 5858 5856 5853 5851 5849 5847 5845 5843 5841 5839 5837 5836 5835 5834 5833 5832 5831 5831 5831 5831 5832 5833 5833 5834 5834 5835 5835 5837 5838 5840 5841 5842 5844 5846 5849 5851 5854 5856 5859 5861 5863 5864
5858 5854 5851 5847 5844 5841 5838 5836 5834 5832 5831 5829 5828 5826 5825 5824 5823 5822 5822 5822 5823 5823 5824 5824 5825 5826 5827 5828 5829 5829 5831 5833 5836 5837 5839 5842 5844 5846 5850 5852 5854 5857 5859
5850 5846 5843 5839 5835 5831 5828 5826 5824 5821 5820 5818 5817 5816 5815 5814 5813 5813 5813 5813 5813 5813 5815 5813 5815 5815 5817 5818 5820 5822 5825 5826 5827 5830 5833 5835 5837 5839 5842 5845 5847 5850 5854
5840 5836 5832 5828 5824 5819 5816 5813 5810 5808 5807 5806 5805 5804 5803 5803 5802 5801 5802 5802 5802 5803 5804 5805 5805 5806 5804 5806 5809 5814 5816 5819 5820 5822 5826 5828 5830 5832 5834 5837 5841 5843 5847
5831 5827 5823 5819 5814 5809 5805 5803 5799 5797 5794 5792 5790 5790 5789 5789 5790 5790 5789 5789 5790 5791 5793 5794 5794 5796 5797 5800 5801 5802 5806 5808 5812 5814 5818 5821 5823 5824 5827 5830 5834 5837 5840
5822 5816 5811 5805 5800 5796 5791 5789 5785 5782 5779 5776 5774 5772 5772 5772 5773 5775 5776 5776 5777 5778 5779 5780 5783 5785 5787 5789 5791 5794 5796 5800 5802 5802 5804 5811 5815 5818 5821 5824 5827 5830 5833
5806 5802 5798 5792 5785 5780 5776 5770 5767 5763 5762 5759 5757 5755 5754 5753 5755 5757 5758 5760 5762 5764 5765 5766 5768 5771 5775 5778 5781 5785 5785 5789 5792 5795 5796 5802 5807 5809 5813 5816 5819 5823 5827
5794 5787 5781 5775 5769 5762 5757 5750 5745 5744 5741 5739 5737 5736 5734 5734 5735 5736 5738 5740 5743 5746 5749 5751 5754 5757 5761 5765 5769 5772 5775 5779 5781 5785 5789 5794 5797 5801 5805 5808 5811 5815 5818
5778 5769 5762 5755 5748 5742 5736 5730 5725 5721 5717 5714 5712 5711 5712 5713 5714 5714 5716 5718 5722 5725 5729 5733 5738 5741 5745 5750 5754 5758 5761 5765 5771 5775 5779 5782 5788 5793 5796 5799 5803 5806 5809
5761 5752 5742 5732 5723 5715 5709 5704 5699 5695 5691 5688 5684 5683 5684 5686 5690 5692 5693 5695 5700 5704 5709 5712 5718 5723 5728 5733 5737 5742 5748 5752 5757 5763 5768 5773 5778 5782 5786 5789 5793 5797 5801
5740 5729 5719 5708 5699 5689 5682 5676 5669 5664 5659 5657 5657 5657 5654 5656 5661 5665 5669 5670 5674 5680 5686 5691 5695 5702 5709 5715 5721 5726 5731 5737 5743 5749 5756 5761 5765 5771 5774 5780 5785 5787 5791
5715 5704 5694 5685 5677 5670 5662 5655 5649 5643 5636 5630 5626 5623 5623 5626 5630 5633 5639 5644 5648 5653 5660 5667 5674 5681 5688 5696 5701 5708 5714 5720 5726 5734 5741 5747 5752 5757 5762 5766 5766 5774 5779
5703 5696 5688 5679 5670 5661 5653 5645 5638 5630 5623 5616 5609 5602 5595 5593 5594 5600 5607 5614 5621 5627 5633 5641 5650 5657 5665 5672 5680 5688 5695 5701 5708 5717 5725 5732 5738 5742 5747 5752 5758 5759 5765
5695 5687 5679 5669 5660 5650 5641 5633 5626 5619 5611 5604 5597 5589 5582 5577 5573 5572 5574 5579 5591 5599 5605 5612 5622 5629 5639 5647 5657 5666 5674 5681 5688 5696 5707 5716 5724 5730 5734 5739 5743 5744 5752
5686 5677 5668 5659 5650 5640 5630 5621 5613 5605 5598 5590 5583 5577 5572 5565 5559 5554 5555 5557 5559 5564 5577 5585 5592 5601 5614 5623 5632 5642 5650 5659 5667 5676 5686 5697 5706 5713 5720 5724 5729 5731 5735
5678 5668 5658 5648 5638 5628 5617 5609 5601 5593 5585 5577 5569 5563 5557 5552 5548 5543 5539 5538 5538 5540 5546 5555 5565 5574 5585 5596 5604 5613 5625 5634 5644 5654 5667 5677 5686 5694 5702 5708 5714 5719 5725
5670 5660 5650 5640 5631 5621 5611 5602 5592 5584 5574 5564 5556 5550 5543 5538 5534 5530 5526 5521 5519 5521 5527 5532 5538 5544 5558 5568 5576 5587 5598 5610 5620 5633 5646 5655 5663 5674 5682 5690 5698 5704 5711
5662 5651 5642 5633 5625 5615 5606 5596 5586 5576 5566 5557 5546 5537 5529 5524 5519 5514 5512 5507 5504 5506 5511 5514 5520 5525 5532 5539 5548 5562 5572 5583 5597 5610 5620 5632 5642 5652 5660 5671 5680 5688 5695
5653 5645 5636 5626 5617 5608 5600 5591 5580 5569 5559 5547 5537 5529 5520 5513 5507 5502 5499 5495 5492 5493 5495 5499 5502 5508 5514 5518 5521 5532 5546 5558 5573 5586 5596 5604 5614 5626 5640 5652 5660 5668 5676
5648 5638 5628 5618 5609 5600 5593 5584 5575 5564 5553 5541 5529 5519 5510 5502 5495 5489 5486 5483 5481 5480 5482 5484 5487 5492 5498 5501 5504 5508 5519 5535 5547 5557 5567 5578 5592 5604 5618 5629 5639 5648 5656
5641 5630 5621 5611 5603 5594 5585 5577 5567 5557 5548 5536 5525 5515 5505 5494 5484 5477 5473 5471 5470 5468 5469 5472 5475 5479 5482 5486 5488 5493 5497 5506 5517 5531 5540 5553 5565 5580 5593 5604 5615 5626 5636
5637 5628 5616 5606 5598 5589 5578 5568 5559 5550 5541 5531 5520 5508 5496 5485 5474 5466 5461 5459 5458 5458 5459 5460 5463 5466 5469 5472 5475 5476 5480 5485 5492 5503 5518 5529 5536 5552 5567 5579 5591 5603 5616
5635 5625 5614 5605 5594 5584 5573 5562 5552 5542 5533 5525 5515 5503 5492 5478 5466 5457 5450 5447 5446 5446 5447 5449 5451 5454 5456 5460 5463 5465 5468 5471 5477 5481 5491 5503 5511 5524 5537 5553 5570 5579 5592